Regional Weather Roundup
Issued by NWS Grand Forks, ND

Home | Current Version | Previous Version | Text Only | Print | Product List | Glossary Off
Versions: 1 2 3 4 5 6 7 8 9 10 11 12 13 14 15 16 17 18 19 20 21 22 23 24 25 26 27 28 29 30 31 32 33 34 35 36 37 38 39 40 41 42 43 44 45 46 47 48 49 50

007
ASUS43 KFGF 182210
RWRFGF
PRAIRIE TO PINES  WEATHER ROUNDUP
NATIONAL WEATHER SERVICE EASTERN NORTH DAKOTA/GRAND FORKS ND
500 PM CDT FRI AUG 18 2017

 **SATELLITE DATA USED TO AUGMENT SKY COVER AT AUTOMATED STATIONS**
 *****  WEATHER ACROSS EASTERN NORTH DAKOTA  *****

CITY           SKY/WX    TMP DP  RH WIND       PRES   REMARKS
GRAND FORKS    FAIR      81  57  43 NW10      29.82F
GRAND FRKS AFB FAIR      80  55  41 N8        29.84S
DEVILS LAKE    PTSUNNY   78  53  41 NW12      29.88F
FARGO          FAIR      79  62  56 W10       29.86S
WAHPETON ARPT  FAIR      73  54  49 NW5       29.88S
$$

 ***** WEATHER ACROSS CENTRAL AND WESTERN NORTH DAKOTA  *****

CITY           SKY/WX    TMP DP  RH WIND       PRES   REMARKS
BISMARCK       FAIR      82  52  35 VRB6      29.92F
MINOT          FAIR      83  48  29 W10       29.88F
JAMESTOWN      FAIR      77  58  51 CALM      29.89F
MINOT AFB      FAIR      83  44  25 NW10      29.87F
GARRISON         N/A     78  50  37 NW10G24   29.90F
WILLISTON      FAIR      84  50  30 VRB3      29.89F
DICKINSON      FAIR      83  47  28 N9        29.93F
HETTINGER      FAIR      83  46  27 W6        29.97F
$$

 *****  OTHER AIRPORT OBSERVATIONS IN OUR AREA  *****

CITY           SKY/WX    TMP DP  RH WIND       PRES   REMARKS
WALHALLA       FAIR      81  79  94 W10       29.82S
GRAFTON AIRPOR FAIR      81  55  41 W9        29.84S
VALLEY CITY AR   N/A     75  63  64 W8        29.91S
CANDO          FAIR      81  54  39 NW7G15    29.89F
CAVALIER APRT  FAIR      81  54  39 NW8       29.81F
GWINNER        PTCLDY    75  59  57 NW8       29.89S
SHEYENNE NWR     N/A     77  62  58 NW7       29.95S
ROLLA          FAIR      79  52  38 W8        29.89F
 ***** THE ABOVE OBSERVATIONS ARE NON NWS ARE NOT QUALITY
       CONTROLLED AND MAY MIS-REPORT RAIN FOR SNOW...
$$

  *****  WEATHER ACROSS NORTHERN MINNESOTA  *****

CITY           SKY/WX    TMP DP  RH WIND       PRES   REMARKS
FLAG ISLAND    FAIR      79  55  44 NW3       29.77S HAZE
WARROAD        FAIR      79  63  57 W9        29.80F
ROSEAU         FAIR      81  57  44 W8        29.80F
HALLOCK        FAIR      82  48  30 NW12      29.80F
THF RVR FALLS  FAIR      79  55  43 NW15      29.85S
BAUDETTE       FAIR      79  56  45 W7        29.80S
WASKISH        LGT RAIN  70  61  73 E7        29.84R
CROOKSTON      FAIR      81  54  39 NW12G18   29.84S
STEPHEN NDAWN    N/A     81  54  39 W9          N/A
GREENBUSH NDAW   N/A     81  52  36 NW10        N/A
$$
  *****  WEATHER ACROSS CENTRAL AND WEST MINNESOTA  *****

CITY           SKY/WX    TMP DP  RH WIND       PRES   REMARKS
FOSSTON        FAIR      72  63  73 S7        29.87S
BEMIDJI        FAIR      74  59  59 SW10      29.85S
PARK RAPIDS    LGT RAIN  61  57  87 SW9       29.89F
ELBOW LAKE     CLOUDY    69  61  77 SE5       29.89S HAZE
WADENA         FAIR      72  55  56 N3        29.90S
DETROIT LAKES  LGT RAIN  68  57  68 CALM      29.90F
MOORHEAD       FAIR      75  63  64 W5        29.87S
FERGUS FALLS   FAIR      73  59  60 CALM      29.87F
MORRIS MN      FAIR      72  63  73 E6        29.87R
STAPLES        FAIR      72  54  53 NW6       29.89S
$$
  *****  WEATHER ELSEWHERE ACROSS MINNESOTA  *****

CITY           SKY/WX    TMP DP  RH WIND       PRES   REMARKS
DULUTH         FAIR      70  60  70 W7        29.85S
INTRNTL FALLS  FAIR      74  58  57 W6        29.79S
ELY            FAIR      73  55  53 W6        29.82S
CLOQUET        FAIR      72  59  64 S7        29.85F
WHEATON        FAIR      72  59  64 N3        29.89S
BRAINERD       CLOUDY    63  61  93 N5        29.90F
HIBBING        FAIR      74  58  57 VRB6      29.83S
ALEXANDRIA     CLOUDY    66  61  84 NW3       29.91R
SAINT CLOUD    FAIR      73  62  68 SW9       29.88R
MINNEAPOLIS    PTSUNNY   73  61  65 SW8       29.88F
$$

  *****  WEATHER ACROSS SOUTH DAKOTA  *****

CITY           SKY/WX    TMP DP  RH WIND       PRES   REMARKS
SIOUX FALLS    PTSUNNY   79  66  64 VRB6      29.88F
BROOKINGS      FAIR      76  63  64 W17       29.86F
WATERTOWN      PTSUNNY   68  61  78 N15       29.88R
HURON          FAIR      77  61  57 NW18      29.90S
SISSETON         N/A     72  62  71 N9        29.88S
ABERDEEN       FAIR      77  58  51 N15       29.91S
MITCHELL       FAIR      79  61  53 N16       29.91R
PIERRE         FAIR      82  50  32 N10G20    29.94S
MOBRIDGE       FAIR      82  57  42 N5        29.92F
RAPID CITY     FAIR      84  40  21 E6G15     30.00F
$$

  *****  SOME WEATHER IN NEARBY STATES *****

CITY           SKY/WX    TMP DP  RH WIND       PRES   REMARKS
GLASGOW MT     FAIR      88  36  15 S9        29.85F
GREAT FALLS MT FAIR      90  26  10 W16G26    29.92F
CHEYENNE WY    FAIR      84  33  16 W9        30.19F
SCOTTSBLUFF NE FAIR      89  36  15 N7        30.06F
OMAHA NE       FAIR      87  62  43 NW8       29.88F
DES MOINES IA  FAIR      89  61  38 NW8       29.86S
DAVENPORT IA   PTSUNNY   78  64  61 NW8       29.90S
CHICAGO IL     FAIR      82  57  42 W14G21    29.84S
EAU CLAIRE WI  FAIR      69  63  81 W8        29.87S
LA CROSSE WI   CLOUDY    72  63  73 NW8       29.89S
$$

  *****  SOME NATIONAL WEATHER *****

CITY           SKY/WX    TMP DP  RH WIND       PRES   REMARKS
LA GUARDIA NY  CLOUDY    80  77  90 S10       29.78R
RALEIGH NC     PTSUNNY   93  72  50 S10       29.84S HX 101
ATLANTA GA     FAIR      89  68  49 W10       29.97R HX  93
NEW ORLEANS LA FAIR      94  73  50 CALM      29.98S HX 103
OKLAHOMA CITY  FAIR      91  71  51 SW13      29.96F HX  97
ALBUQUERQUE NM FAIR      91  17   6 SW9       30.16F
SALT LAKE CITY FAIR      91  39  16 N8G17     30.10F
LOS ANGELES CA FAIR      73  62  68 W17       29.98F
BOISE ID       FAIR      91  32  12 NW10G23   30.04F
SEATTLE WA     FAIR      68  54  60 S12G17    30.18F
$$

*** WEATHER ACROSS MANITOBA...SASKATCHEWAN AND ONTARIO ***
                ***ONTARIO***

CITY           SKY/WX    TMP DP  RH WIND       PRES   REMARKS
GERALDTON      PTSUNNY   64  57  77 N6        29.76R
THUNDER BAY    CLOUDY    73  55  53 N8        29.76F
SIOUX LOOKOUT  PTSUNNY   75  55  50 N3        29.75S
TORONTO        PTSUNNY   75  64  69 W15G25    29.71R
BIG TROUT LK   MOSUNNY   75  52  43 W8        29.66R
PICKLE LAKE    PTSUNNY   70  55  60 NE7       29.74R THUNDER
DRYDEN         PTSUNNY   73  59  60 CALM      29.76F
KENORA         PTSUNNY   79  52  38 NW10G17   29.78S
$$
                *** MANITOBA***

CITY           SKY/WX    TMP DP  RH WIND       PRES   REMARKS
BRANDON        MOSUNNY   81  52  36 W7        29.84F
DAUPHIN        SUNNY     82  52  34 W13       29.79F
ISLAND LAKE    PTSUNNY   77  50  38 W6        29.68F
PILOT MOUND      N/A     77  50  38 NW10G17     N/A
THE PAS        MOSUNNY   81  52  36 W10       29.71S
THOMPSON       PTSUNNY   77  52  41 W14G22    29.64S
WINNIPEG       MOSUNNY   82  52  34 W13       29.79S
LYNN LAKE      CLOUDY    70  52  52 MISG      29.67S HAZE
CHURCHILL      PTSUNNY   59  55  88 N15       29.60R SMOKE
GILLAM         PTSUNNY   72  59  64 W13       29.60S
$$
                ***SASKATCHEWAN***

CITY           SKY/WX    TMP DP  RH WIND       PRES   REMARKS
ESTEVAN        MOSUNNY   82  46  28 SW6       29.87F
KINDERSLEY     PTSUNNY   86  46  25 S12G20    29.74F
LLOYDMINSTER   PTSUNNY   75  54  46 S10       29.75F
PRINCE ALBERT  PTSUNNY   81  50  34 SW9       29.78F
REGINA         MOSUNNY   82  41  23 W8        29.84F
YORKTON        SUNNY     79  50  36 W8        29.84F
N. BATTLEFORD  SUNNY     79  50  36 S8        29.79F
LA RONGE       PTSUNNY   81  54  39 SW9G17    29.70F
SASKATOON      MOSUNNY   81  46  30 S8        29.80F
SWIFT CURRENT  SUNNY     88  41  19 SW18G26   29.79F
$$
NOTE: THESE ARE AUTOMATED STATIONS WITH LIMITED QUALITY CONTROL
      "FAIR" INDICATES FEW OR NO CLOUDS BELOW 12,000 FEET WITH NO
      SIGNIFICANT WEATHER AND/OR OBSTRUCTIONS TO VISIBILITY.
      SKY/WX - SKY CONDITION AND SIGNIFICANT WEATHER.
      TMP - AIR TEMPERATURE.    DP   - DEWPOINT TEMPERATURE.
      RH  - RELATIVE HUMIDITY.  PRES - PRESSURE.
      HX  - HEAT INDEX.         WCI  - WIND CHILL INDEX.
$




USA.gov is the U.S. government's official web portal to all federal, state and local government web resources and services.